Content
SEND FEEDBACK

Daily
Averages
Monthly
Summary
Australia

COLLINS CAP, TASMANIA


Home > Oceania > Australia > Tasmania
Elevation: 4133 feet     Latitude: 42 54S     Longitude: 147 14E

WEATHER
 
SELECT A DAY
Number of Records: 296,962;   Date Range: 7/1/96 - 7/27/14
 
SHARE

PRINT THIS DATA

[ ← Previous Day ]
WEATHER ALMANAC - JANUARY 23, 2013
[ Next Day → ]
[ °C ]   °F
Weather ElementAverageHighLow
Temperature57.7 °F67 °F (3:00 pm)44.6 °F (3:30 am)
Dewpoint41.9 °F46.4 °F (12:00 am)37 °F (2:00 pm)
Humidity55.5 %87 % (1:00 am)23 % (2:00 pm)
Barometer30.12 in30.24 in (9:30 pm)29.95 in (12:00 am)
Wind Speed9.3 mph19.6 mph (4:00 pm)
Weather ElementAverage
Visibility7.8 mi
Wind DirectionS (180.8 °)

Weather ElementTotal
Precipitation---
Heating Degree Days9.2 (Base 65)
Growing Degree Days5.8 (Base 50)
Averaged from 63 records on January 23, 2013
WEATHER CONDITIONS BREAKOUT
WIND DIRECTION BREAKOUT
WEATHER BY HOUR - JANUARY 23, 2013
[ °C ]   °F
Local TimeTemperatureDewpointHumidityBarometerVisibilityWind DirectionWind SpeedGust SpeedPrecipitationEventsConditions
12:00 AM51.8 °F46.4 °F82 %29.95 in6.2 miNW (320°)8.1 mphPartly Cloudy
12:30 AM51.8 °F46.4 °F82 %29.95 in6.2 miSouth (190°)5.8 mphPartly Cloudy
1:00 AM50.0 °F46.4 °F87 %29.98 in6.2 miWNW (300°)3.5 mphPartly Cloudy
1:30 AM50.0 °F46.4 °F87 %29.98 in6.2 miWNW (300°)5.8 mphPartly Cloudy
2:00 AM51.0 °F43.0 °F65 %29.99 inWest (260°)4.6 mph
2:00 AM50.0 °F42.8 °F76 %29.98 in6.2 miWest (260°)4.6 mphPartly Cloudy
2:30 AM51.8 °F41.0 °F67 %29.98 in6.2 miWest (260°)4.6 mphPartly Cloudy
3:00 AM48.2 °F41.0 °F76 %29.98 in6.2 miWNW (290°)4.6 mphPartly Cloudy
3:00 AM48.0 °F42.0 °F71 %30.00 in19.0 miWNW (290°)4.6 mphHaze
3:30 AM44.6 °F41.0 °F87 %30.01 in6.2 miSouth (170°)4.6 mphPartly Cloudy
4:00 AM50.0 °F41.0 °F71 %30.01 in6.2 miWest (260°)4.6 mphPartly Cloudy
4:30 AM48.2 °F41.0 °F76 %30.01 in6.2 miWNW (290°)3.5 mphPartly Cloudy
5:00 AM47.0 °F40.0 °F69 %30.03 inWest (270°)5.8 mph
5:00 AM48.2 °F39.2 °F71 %30.01 in6.2 miWest (270°)5.8 mphPartly Cloudy
5:30 AM48.2 °F42.8 °F82 %30.04 in6.2 miNW (310°)9.2 mphPartly Cloudy
6:00 AM46.4 °F41.0 °F81 %30.04 in6.2 miWest (280°)8.1 mphPartly Cloudy
6:00 AM46.0 °F40.0 °F74 %30.06 in22.0 miWest (280°)8.1 mphHaze
6:30 AM48.2 °F41.0 °F76 %30.06 in6.2 miWest (280°)4.6 mphPartly Cloudy
7:00 AM50.0 °F42.8 °F76 %30.06 in6.2 miWest (270°)8.1 mphPartly Cloudy
7:30 AM51.8 °F42.8 °F71 %30.09 in6.2 miNW (310°)8.1 mphPartly Cloudy
8:00 AM56.0 °F43.0 °F52 %30.13 inNW (320°)8.1 mph
8:00 AM55.4 °F42.8 °F63 %30.12 in6.2 miNW (320°)8.1 mph
8:30 AM57.2 °F42.8 °F59 %30.12 in6.2 miNW (310°)5.8 mphPartly Cloudy
9:00 AM60.8 °F42.8 °F52 %30.12 in6.2 miSW (220°)4.6 mphPartly Cloudy
9:00 AM60.0 °F42.0 °F40 %30.14 in22.0 miSW (220°)4.6 mphHaze
9:30 AM59.0 °F42.8 °F55 %30.12 in6.2 miSE (130°)6.9 mphPartly Cloudy
10:00 AM62.6 °F41.0 °F45 %30.12 in6.2 miSSE (150°)9.2 mphPartly Cloudy
10:30 AM62.6 °F44.6 °F52 %30.15 in6.2 miSE (130°)10.4 mphPartly Cloudy
11:00 AM62.0 °F44.0 °F40 %30.16 inSE (130°)11.5 mph
11:00 AM62.6 °F44.6 °F52 %30.15 in6.2 miSE (130°)11.5 mphPartly Cloudy
11:30 AM62.6 °F42.8 °F48 %30.15 in6.2 miEast (100°)11.5 mphPartly Cloudy
12:00 PM62.6 °F41.0 °F45 %30.15 in6.2 miSE (140°)12.7 mphPartly Cloudy
12:00 PM63.0 °F41.0 °F33 %30.16 inSE (140°)12.7 mph
12:30 PM64.4 °F37.4 °F37 %30.15 in6.2 miSE (140°)12.7 mphPartly Cloudy
1:00 PM66.2 °F39.2 °F37 %30.15 in6.2 miSSE (150°)12.7 mph
1:30 PM66.2 °F37.4 °F35 %30.15 in6.2 miSSE (150°)12.7 mphPartly Cloudy
2:00 PM66.0 °F37.0 °F23 %30.16 inSSE (150°)15.0 mph
2:00 PM66.2 °F37.4 °F35 %30.15 in6.2 miSSE (150°)15.0 mphPartly Cloudy
2:30 PM66.2 °F39.2 °F37 %30.15 in6.2 miSSE (150°)16.1 mphPartly Cloudy
3:00 PM66.2 °F42.8 °F43 %30.15 in6.2 miSSE (150°)17.3 mphPartly Cloudy
3:00 PM67.0 °F43.0 °F31 %30.16 in22.0 miSSE (150°)17.3 mphPartly Cloudy
3:30 PM66.2 °F42.8 °F43 %30.15 in6.2 miSSE (150°)17.3 mphPartly Cloudy
4:00 PM64.4 °F44.6 °F49 %30.15 in6.2 miSouth (170°)19.6 mphPartly Cloudy
4:30 PM64.4 °F41.0 °F42 %30.15 in6.2 miESE (110°)11.5 mphScattered Clouds
5:00 PM65.0 °F41.0 °F30 %30.18 inESE (110°)10.4 mph
5:00 PM64.4 °F41.0 °F42 %30.15 in6.2 miESE (110°)10.4 mphMostly Cloudy
5:30 PM64.4 °F41.0 °F42 %30.15 in6.2 miESE (110°)11.5 mphMostly Cloudy
6:00 PM62.6 °F41.0 °F45 %30.15 in6.2 miESE (110°)12.7 mphMostly Cloudy
6:00 PM63.0 °F41.0 °F33 %30.18 in22.0 miESE (110°)12.7 mphPartly Cloudy
6:30 PM62.6 °F41.0 °F45 %30.18 in6.2 miESE (110°)11.5 mphMostly Cloudy
7:00 PM60.8 °F41.0 °F48 %30.18 in6.2 miESE (110°)10.4 mphOvercast
7:30 PM60.8 °F41.0 °F48 %30.18 in6.2 miEast (90°)9.2 mphScattered Clouds
8:00 PM60.0 °F41.0 °F38 %30.21 inEast (100°)9.2 mph
8:00 PM60.8 °F41.0 °F48 %30.21 in6.2 miEast (100°)9.2 mphPartly Cloudy
8:30 PM59.0 °F41.0 °F51 %30.21 in6.2 miEast (100°)8.1 mphPartly Cloudy
9:00 PM59.0 °F42.8 °F55 %30.21 in6.2 miENE (70°)10.4 mphPartly Cloudy
9:00 PM59.0 °F43.0 °F43 %30.23 in19.0 miENE (70°)10.4 mphHaze
9:30 PM59.0 °F42.8 °F55 %30.24 in6.2 miNE (50°)11.5 mphPartly Cloudy
10:00 PM57.2 °F42.8 °F59 %30.24 in6.2 miNE (50°)10.4 mphPartly Cloudy
10:30 PM57.2 °F42.8 °F59 %30.24 in6.2 miNE (50°)9.2 mphPartly Cloudy
11:00 PM56.0 °F44.0 °F53 %30.24 inNNE (30°)6.9 mph
11:00 PM55.4 °F42.8 °F63 %30.24 in6.2 miNNE (30°)6.9 mphPartly Cloudy
11:30 PM55.4 °F42.8 °F63 %30.21 in6.2 miNorth (360°)5.8 mphPartly Cloudy
Hourly data recorded from YMHB, located miles away from Collins Cap, Tasmania







STORIES FROM OUR PARTNERS